Time,TemperatureF,DewpointF,PressureIn,WindDirection,WindDirectionDegrees,WindSpeedMPH,WindSpeedGustMPH,Humidity,HourlyPrecipIn,Conditions,Clouds,dailyrainin,SoftwareType,DateUTC
2013-10-02 00:10:00,60.7,55.0,30.19,NW,312,0.0,-999.0,82,-99.99,,,0.00,weatherlink.com 1.10,2013-10-02 04:10:00,
2013-10-02 00:25:00,60.3,54.0,30.19,NW,312,0.0,-999.0,81,-99.99,,,0.00,weatherlink.com 1.10,2013-10-02 04:25:00,
2013-10-02 00:40:00,59.9,54.0,30.18,NW,312,0.0,-999.0,82,-99.99,,,0.00,weatherlink.com 1.10,2013-10-02 04:40:00,
2013-10-02 00:56:00,59.7,54.0,30.18,NW,312,0.0,-999.0,82,-99.99,,,0.00,weatherlink.com 1.10,2013-10-02 04:56:00,
2013-10-02 01:11:00,59.4,54.0,30.18,NW,312,0.0,-999.0,82,-99.99,,,0.00,weatherlink.com 1.10,2013-10-02 05:11:00,
2013-10-02 01:26:00,59.2,54.0,30.18,NW,312,0.0,-999.0,83,-99.99,,,0.00,weatherlink.com 1.10,2013-10-02 05:26:00,
2013-10-02 01:41:00,59.0,54.0,30.18,NW,312,0.0,-999.0,83,-99.99,,,0.00,weatherlink.com 1.10,2013-10-02 05:41:00,
2013-10-02 01:56:00,58.7,54.0,30.18,NW,312,0.0,-999.0,83,-99.99,,,0.00,weatherlink.com 1.10,2013-10-02 05:56:00,
2013-10-02 02:11:00,58.4,53.0,30.18,NW,312,0.0,-999.0,83,-99.99,,,0.00,weatherlink.com 1.10,2013-10-02 06:11:00,
2013-10-02 02:26:00,58.1,53.0,30.19,NW,312,0.0,-999.0,83,-99.99,,,0.00,weatherlink.com 1.10,2013-10-02 06:26:00,
2013-10-02 02:41:00,58.0,53.0,30.19,NW,312,0.0,-999.0,83,-99.99,,,0.00,weatherlink.com 1.10,2013-10-02 06:41:00,
2013-10-02 02:56:00,57.8,53.0,30.18,NW,312,0.0,-999.0,84,-99.99,,,0.00,weatherlink.com 1.10,2013-10-02 06:56:00,
2013-10-02 03:11:00,57.6,53.0,30.18,NW,312,0.0,-999.0,83,-99.99,,,0.00,weatherlink.com 1.10,2013-10-02 07:11:00,
2013-10-02 03:26:00,57.5,53.0,30.18,NW,312,0.0,-999.0,84,-99.99,,,0.00,weatherlink.com 1.10,2013-10-02 07:26:00,
2013-10-02 03:41:00,57.3,53.0,30.17,NW,312,0.0,-999.0,84,-99.99,,,0.00,weatherlink.com 1.10,2013-10-02 07:41:00,
2013-10-02 03:57:00,57.0,52.0,30.17,NW,312,0.0,-999.0,83,-99.99,,,0.00,weatherlink.com 1.10,2013-10-02 07:57:00,
2013-10-02 04:12:00,56.7,52.0,30.17,NW,312,0.0,-999.0,83,-99.99,,,0.00,weatherlink.com 1.10,2013-10-02 08:12:00,
2013-10-02 04:27:00,56.5,52.0,30.17,NW,312,0.0,-999.0,84,-99.99,,,0.00,weatherlink.com 1.10,2013-10-02 08:27:00,
2013-10-02 04:42:00,56.3,51.0,30.17,NW,312,0.0,-999.0,83,-99.99,,,0.00,weatherlink.com 1.10,2013-10-02 08:42:00,
2013-10-02 04:57:00,56.0,51.0,30.18,NW,312,0.0,-999.0,83,-99.99,,,0.00,weatherlink.com 1.10,2013-10-02 08:57:00,
2013-10-02 05:12:00,55.8,51.0,30.18,NW,312,0.0,-999.0,84,-99.99,,,0.00,weatherlink.com 1.10,2013-10-02 09:12:00,
2013-10-02 05:27:00,55.7,51.0,30.18,NW,312,0.0,-999.0,84,-99.99,,,0.00,weatherlink.com 1.10,2013-10-02 09:27:00,
2013-10-02 05:42:00,55.4,51.0,30.18,NW,312,0.0,-999.0,84,-99.99,,,0.00,weatherlink.com 1.10,2013-10-02 09:42:00,
2013-10-02 05:57:00,55.2,51.0,30.18,NW,312,0.0,-999.0,84,-99.99,,,0.00,weatherlink.com 1.10,2013-10-02 09:57:00,
2013-10-02 06:12:00,54.9,50.0,30.18,NW,312,0.0,-999.0,83,-99.99,,,0.00,weatherlink.com 1.10,2013-10-02 10:12:00,
2013-10-02 06:27:00,54.7,50.0,30.18,NW,312,0.0,-999.0,83,-99.99,,,0.00,weatherlink.com 1.10,2013-10-02 10:27:00,
2013-10-02 06:42:00,54.5,50.0,30.19,NW,312,0.0,-999.0,84,-99.99,,,0.00,weatherlink.com 1.10,2013-10-02 10:42:00,
2013-10-02 06:58:00,54.4,50.0,30.20,NW,312,0.0,-999.0,84,-99.99,,,0.00,weatherlink.com 1.10,2013-10-02 10:58:00,
2013-10-02 07:13:00,54.2,50.0,30.21,NW,312,0.0,-999.0,84,-99.99,,,0.00,weatherlink.com 1.10,2013-10-02 11:13:00,
2013-10-02 07:28:00,54.0,49.0,30.21,NW,312,0.0,-999.0,84,-99.99,,,0.00,weatherlink.com 1.10,2013-10-02 11:28:00,
2013-10-02 07:43:00,54.0,49.0,30.21,NW,312,0.0,-999.0,84,-99.99,,,0.00,weatherlink.com 1.10,2013-10-02 11:43:00,
2013-10-02 07:58:00,54.2,50.0,30.21,NW,312,0.0,-999.0,85,-99.99,,,0.00,weatherlink.com 1.10,2013-10-02 11:58:00,
2013-10-02 08:13:00,54.7,50.0,30.22,NW,312,0.0,-999.0,85,-99.99,,,0.00,weatherlink.com 1.10,2013-10-02 12:13:00,
2013-10-02 08:28:00,55.2,51.0,30.22,NW,312,0.0,-999.0,85,-99.99,,,0.00,weatherlink.com 1.10,2013-10-02 12:28:00,
2013-10-02 08:43:00,56.0,52.0,30.23,NNW,334,0.0,-999.0,86,-99.99,,,0.00,weatherlink.com 1.10,2013-10-02 12:43:00,
2013-10-02 08:58:00,56.8,53.0,30.23,NW,326,0.0,-999.0,86,-99.99,,,0.01,weatherlink.com 1.10,2013-10-02 12:58:00,
2013-10-02 09:13:00,57.6,54.0,30.24,NNW,338,0.0,-999.0,86,-99.99,,,0.01,weatherlink.com 1.10,2013-10-02 13:13:00,
2013-10-02 09:28:00,58.5,55.0,30.24,NW,306,0.0,-999.0,87,-99.99,,,0.01,weatherlink.com 1.10,2013-10-02 13:28:00,
2013-10-02 09:44:00,59.3,56.0,30.24,NW,310,0.0,-999.0,87,-99.99,,,0.01,weatherlink.com 1.10,2013-10-02 13:44:00,
2013-10-02 09:59:00,60.2,56.0,30.25,NW,310,0.0,-999.0,87,-99.99,,,0.01,weatherlink.com 1.10,2013-10-02 13:59:00,
2013-10-02 10:14:00,61.4,58.0,30.24,NW,310,0.0,-999.0,87,-99.99,,,0.01,weatherlink.com 1.10,2013-10-02 14:14:00,
2013-10-02 10:29:00,62.4,59.0,30.24,NNW,336,0.0,-999.0,87,-99.99,,,0.01,weatherlink.com 1.10,2013-10-02 14:29:00,
2013-10-02 10:44:00,63.4,59.0,30.24,NNW,336,0.0,-999.0,86,-99.99,,,0.01,weatherlink.com 1.10,2013-10-02 14:44:00,
2013-10-02 10:59:00,64.4,59.0,30.24,NNW,334,0.0,-999.0,82,-99.99,,,0.01,weatherlink.com 1.10,2013-10-02 14:59:00,
2013-10-02 11:14:00,67.5,59.0,30.23,NNW,335,0.0,-999.0,73,-99.99,,,0.01,weatherlink.com 1.10,2013-10-02 15:14:00,
2013-10-02 11:29:00,70.9,59.0,30.23,ESE,111,0.0,-999.0,67,-99.99,,,0.01,weatherlink.com 1.10,2013-10-02 15:29:00,
2013-10-02 11:44:00,72.3,59.0,30.22,ESE,114,0.0,-999.0,64,-99.99,,,0.01,weatherlink.com 1.10,2013-10-02 15:44:00,
2013-10-02 12:00:00,73.0,59.0,30.22,ENE,59,2.0,-999.0,62,-99.99,,,0.01,weatherlink.com 1.10,2013-10-02 16:00:00,
2013-10-02 12:15:00,73.4,58.0,30.22,ESE,117,0.0,-999.0,59,-99.99,,,0.01,weatherlink.com 1.10,2013-10-02 16:15:00,
2013-10-02 12:30:00,73.9,58.0,30.21,ESE,116,0.0,-999.0,57,-99.99,,,0.01,weatherlink.com 1.10,2013-10-02 16:30:00,
2013-10-02 12:45:00,74.5,57.0,30.20,SSE,163,0.0,-999.0,55,-99.99,,,0.01,weatherlink.com 1.10,2013-10-02 16:45:00,
2013-10-02 13:00:00,75.4,58.0,30.20,NNW,329,1.0,-999.0,56,-99.99,,,0.01,weatherlink.com 1.10,2013-10-02 17:00:00,
2013-10-02 13:15:00,75.6,60.0,30.20,ENE,66,0.0,-999.0,59,-99.99,,,0.01,weatherlink.com 1.10,2013-10-02 17:15:00,
2013-10-02 13:30:00,75.3,60.0,30.19,NNE,19,0.0,-999.0,59,-99.99,,,0.01,weatherlink.com 1.10,2013-10-02 17:30:00,
2013-10-02 13:45:00,75.5,57.0,30.18,ENE,61,0.0,-999.0,53,-99.99,,,0.01,weatherlink.com 1.10,2013-10-02 17:45:00,
2013-10-02 14:00:00,76.0,57.0,30.18,WNW,293,0.0,-999.0,52,-99.99,,,0.01,weatherlink.com 1.10,2013-10-02 18:00:00,
2013-10-02 14:15:00,76.5,59.0,30.18,ENE,78,2.0,-999.0,54,-99.99,,,0.01,weatherlink.com 1.10,2013-10-02 18:15:00,
2013-10-02 14:31:00,76.9,58.0,30.18,NE,38,0.0,-999.0,53,-99.99,,,0.01,weatherlink.com 1.10,2013-10-02 18:31:00,
2013-10-02 14:46:00,77.5,57.0,30.17,ENE,65,1.0,-999.0,50,-99.99,,,0.01,weatherlink.com 1.10,2013-10-02 18:46:00,
2013-10-02 15:01:00,77.9,59.0,30.16,NW,321,0.0,-999.0,53,-99.99,,,0.01,weatherlink.com 1.10,2013-10-02 19:01:00,
2013-10-02 15:16:00,77.4,60.0,30.16,NW,321,0.0,-999.0,56,-99.99,,,0.01,weatherlink.com 1.10,2013-10-02 19:16:00,
2013-10-02 15:31:00,75.4,59.0,30.15,NW,321,0.0,-999.0,58,-99.99,,,0.01,weatherlink.com 1.10,2013-10-02 19:31:00,
2013-10-02 15:46:00,74.4,60.0,30.15,NW,321,0.0,-999.0,61,-99.99,,,0.01,weatherlink.com 1.10,2013-10-02 19:46:00,
2013-10-02 16:01:00,74.1,58.0,30.15,NW,321,0.0,-999.0,58,-99.99,,,0.01,weatherlink.com 1.10,2013-10-02 20:01:00,
2013-10-02 16:16:00,74.5,58.0,30.15,East,98,0.0,-999.0,57,-99.99,,,0.01,weatherlink.com 1.10,2013-10-02 20:16:00,
2013-10-02 16:31:00,74.9,59.0,30.14,East,98,0.0,-999.0,57,-99.99,,,0.01,weatherlink.com 1.10,2013-10-02 20:31:00,
2013-10-02 16:46:00,75.1,58.0,30.15,East,98,0.0,-999.0,56,-99.99,,,0.01,weatherlink.com 1.10,2013-10-02 20:46:00,
2013-10-02 17:01:00,75.5,58.0,30.14,East,98,0.0,-999.0,55,-99.99,,,0.01,weatherlink.com 1.10,2013-10-02 21:01:00,
2013-10-02 17:17:00,75.6,59.0,30.14,East,98,0.0,-999.0,57,-99.99,,,0.01,weatherlink.com 1.10,2013-10-02 21:17:00,
2013-10-02 17:32:00,75.4,59.0,30.14,East,98,0.0,-999.0,57,-99.99,,,0.01,weatherlink.com 1.10,2013-10-02 21:32:00,
2013-10-02 17:47:00,75.1,60.0,30.14,East,98,0.0,-999.0,60,-99.99,,,0.01,weatherlink.com 1.10,2013-10-02 21:47:00,
2013-10-02 18:02:00,74.5,60.0,30.14,East,98,0.0,-999.0,61,-99.99,,,0.01,weatherlink.com 1.10,2013-10-02 22:02:00,
2013-10-02 18:17:00,73.7,61.0,30.15,East,98,0.0,-999.0,64,-99.99,,,0.01,weatherlink.com 1.10,2013-10-02 22:17:00,
2013-10-02 18:32:00,72.7,61.0,30.15,East,98,0.0,-999.0,66,-99.99,,,0.01,weatherlink.com 1.10,2013-10-02 22:32:00,
2013-10-02 18:47:00,71.6,60.0,30.15,East,98,0.0,-999.0,68,-99.99,,,0.01,weatherlink.com 1.10,2013-10-02 22:47:00,
2013-10-02 19:02:00,70.6,60.0,30.15,East,98,0.0,-999.0,70,-99.99,,,0.01,weatherlink.com 1.10,2013-10-02 23:02:00,
2013-10-02 19:17:00,69.8,60.0,30.16,East,98,0.0,-999.0,70,-99.99,,,0.01,weatherlink.com 1.10,2013-10-02 23:17:00,
2013-10-02 19:32:00,69.1,60.0,30.15,East,98,0.0,-999.0,72,-99.99,,,0.01,weatherlink.com 1.10,2013-10-02 23:32:00,
2013-10-02 19:47:00,68.2,59.0,30.16,East,98,0.0,-999.0,73,-99.99,,,0.01,weatherlink.com 1.10,2013-10-02 23:47:00,
2013-10-02 20:03:00,67.4,59.0,30.16,East,98,0.0,-999.0,74,-99.99,,,0.01,weatherlink.com 1.10,2013-10-03 00:03:00,
2013-10-02 20:17:00,66.8,59.0,30.16,East,98,0.0,-999.0,75,-99.99,,,0.01,weatherlink.com 1.10,2013-10-03 00:17:00,
2013-10-02 20:33:00,66.2,58.0,30.16,East,98,0.0,-999.0,76,-99.99,,,0.01,weatherlink.com 1.10,2013-10-03 00:33:00,
2013-10-02 20:48:00,65.5,58.0,30.17,East,98,0.0,-999.0,77,-99.99,,,0.01,weatherlink.com 1.10,2013-10-03 00:48:00,
2013-10-02 21:03:00,64.9,58.0,30.17,East,98,0.0,-999.0,78,-99.99,,,0.01,weatherlink.com 1.10,2013-10-03 01:03:00,
2013-10-02 21:18:00,64.5,58.0,30.18,East,98,0.0,-999.0,79,-99.99,,,0.01,weatherlink.com 1.10,2013-10-03 01:18:00,
2013-10-02 21:33:00,64.0,58.0,30.18,East,98,0.0,-999.0,80,-99.99,,,0.01,weatherlink.com 1.10,2013-10-03 01:33:00,
2013-10-02 21:48:00,63.6,57.0,30.18,East,98,0.0,-999.0,80,-99.99,,,0.01,weatherlink.com 1.10,2013-10-03 01:48:00,
2013-10-02 22:03:00,63.3,58.0,30.18,East,98,0.0,-999.0,82,-99.99,,,0.01,weatherlink.com 1.10,2013-10-03 02:03:00,
2013-10-02 22:18:00,63.0,57.0,30.18,East,98,0.0,-999.0,81,-99.99,,,0.01,weatherlink.com 1.10,2013-10-03 02:18:00,
2013-10-02 22:33:00,62.7,57.0,30.19,East,98,0.0,-999.0,81,-99.99,,,0.01,weatherlink.com 1.10,2013-10-03 02:33:00,
2013-10-02 22:49:00,62.5,57.0,30.19,East,98,0.0,-999.0,81,-99.99,,,0.01,weatherlink.com 1.10,2013-10-03 02:49:00,
2013-10-02 23:03:00,62.3,57.0,30.19,East,98,0.0,-999.0,82,-99.99,,,0.01,weatherlink.com 1.10,2013-10-03 03:03:00,
2013-10-02 23:18:00,62.1,57.0,30.20,East,98,0.0,-999.0,82,-99.99,,,0.01,weatherlink.com 1.10,2013-10-03 03:18:00,
2013-10-02 23:33:00,61.9,56.0,30.20,East,98,0.0,-999.0,82,-99.99,,,0.01,weatherlink.com 1.10,2013-10-03 03:33:00,
2013-10-02 23:49:00,61.6,56.0,30.20,East,98,0.0,-999.0,82,-99.99,,,0.01,weatherlink.com 1.10,2013-10-03 03:49:00,